Погода Верхний Уфалей

Погода Верхний Уфалей : погода сейчас, прогноз погоды и архив. Всё, что Вы хотите узнать о погоде Верхний Уфалей!

Поиск расширенной информации на нашем сайте:

Другие новости

Новости СМИ2

Главная страница сайта

Новости сайта

02.10.2013

Напоминаем, что на нашем новом сайте вы можете получить высокодетализированные прогнозы погоды по пунктам России, СНГ и мира (включающие важные для авиации метеовеличины, такие как направление и скорость ветра, видимость, явления погоды, количество и форма облачности, нижняя и верхняя граница облачности), а также ознакомиться с разнообразными материалами по авиационной метеорологии и подборкой полезных ссылок на эту тему.

Сайт Метеоцентр.Азия посвящён разработке технологий оптимизации авиаметеорологического обслуживания, включая проектирование и перспективное создание нескольких автоматизированных авиаметеорологических систем:
- система выпуска высокодетальных прогностических карт явлений погоды для нижнего воздушного пространства по России и ближнему зарубежью;
- система верификации прогнозов TAF (выпускаемых синоптиками официальных АМСГ РФ и ближнего зарубежья) и AUTOTAF (выпускаемых сайтом Метеоцентр.Азия) - выявление ошибок, онлайн-сопоставление с фактической погодой METAR, автоматическое внесение коррективов в прогнозы при резком отклонении фактической погоды от прогноза, подсчёт оправдываемости прогнозов по элементам и в целом;
- система обработки, анализа и отображения авиаметеорологической информации для применения провайдерами метеорологической информации.

Рекомендуем: Набор столовое серебро цена.

Погода Верхний Уфалей - сегодня

Время (UTC), дата Ветер
(°,м/с) 
Видим.   Явления Облачность Т
(°С)
Тd
(°С)
f(%) Тe
(°С)
Pmin
(гПа)
dP
(гПа)
Po
(мм)
O2
(г/м3)
Тmin Tmax R s Состояние
почвы
21 26.03.17 230 (ЮЗ) 20000 м    8/8 600 м 
[Sc]
-3.1 -8.1 68 -6  1006.5  -1.1  718  293           
00 27.03.17 240 (ЮЗ) 4{10}  20000 м    9/9 600 м 
[Sc]
-2.8 -6.2 77 -6  1005.9  -0.5  718  293           
03 27.03.17 250 (З) 2000 м  слаб. ливневой снег  9/8 600 м кучево-дожд., средняя 
[Cb calv|Ac trans]
-2.8 -5 85 -6  1006.1  0.2  718  293  -3.9    0.2  29  неравномерный
сухой снег
100% 
06 27.03.17 230 (ЮЗ) 20000 м  {ливн. осадки}  9/6 600 м средняя 
[Sc|Ac trans]
-0.6 -5.4 70 -4  1006.3  0.6  718  291           
09 27.03.17 220 (ЮЗ) 20000 м    9/6 600 м средняя 
[Sc|Ac trans]
+0.6 -7.2 56 -2  1006.2  0.1  718  289           
12 27.03.17 220 (ЮЗ) 20000 м  {ливн. осадки}  6/4 600 м средняя 
[Sc|Ac trans]
+0.9 -6.3 59 -1  1005.4  -0.7  718  289           
15 27.03.17 170 (Ю) 20000 м    ясно 
-1.7 -7 67 -1  1005.8  -0.1  718  292    +1.1  0.0     
18 27.03.17 тихо ()   20000 м    ясно 
-4.6 -8.5 74 -5  1006.1  -0.2  717  295           
21 27.03.17 170 (Ю) 20000 м    ясно 
-5.1 -8.1 79 -5  1005.7  -0.5  717  295           
00 28.03.17 тихо ()   20000 м    ясно 
-6.5 -8.5 86 -7  1004.9  -1  716  296           
03 28.03.17 140 (ЮВ) 20000 м    9/0 средняя 
[Ac trans]
-3.9 -7.5 76 -6  1003.2  -1.1  716  293  -7.1      28  неравномерный
мокрый или
старый снег
100% 
06 28.03.17 180 (Ю) 20000 м    10/0 средняя 
[As trans]
+0.5 -8.7 50 -2  1000.3  -2.1  714  288           
09 28.03.17 170 (Ю) 5-10{11}  20000 м    10/3 600 м средняя 
[Sc|As trans]
+1.3 -8.2 49 -1  997.9  -2.1  712  286           
12 28.03.17 150 (ЮВ) 4{13}  20000 м    10/3 600 м средняя 
[Sc|As trans]
+1.3 -7.9 50 -1  995.2  -2.6  710  286           
15 28.03.17 170 (Ю) 20000 м    10/6 600 м средняя 
[Sc|As trans]
-2.3 -4 88 -4  995.2  -0.6  710  289    +1.8       
18 28.03.17 190 (Ю) 2000 м  слаб. ливневой снег  10/9 600 м кучево-дожд., средняя 
[Cb calv|As trans]
-2.5 -4.3 87 -4  994.3  -0.8  709  289           
21 28.03.17 230 (ЮЗ) 4000 м  {ливн. осадки}  10/8 600 м средняя 
[Sc|Ac As]
-1.6 -4.3 82 -3  994.1  -0.1  709  288           
00 29.03.17 240 (ЮЗ) 4000 м  {ливн. осадки}  10/8 600 м средняя 
[Sc|Ac As]
-1.7 -3.8 86 -3  994.6  0.5  710  288           
03 29.03.17 220 (ЮЗ) 20000 м  {ливн. осадки}  10/8 600 м средняя 
[Sc|Ac As]
-1.6 -3.4 88 -3  995.8  1.1  710  288  -2.9    0.3  26  неравномерный
сухой снег
100% 
06 29.03.17 220 (ЮЗ) 20000 м  {ливн. осадки}  8/6 600 м средняя 
[Sc|Ac trans]
+0.9 -4.8 66 -1  995.3  710  286           
09 29.03.17 130 (ЮВ) 20000 м    10/8 600 м средняя 
[Sc|Ac As]
+0.7 -4.2 70 -2  994.3  -1  710  286           
12 29.03.17 120 (ЮВ) 20000 м  {ливн. осадки}  10/8 600 м средняя 
[Sc|Ac As]
-0.8 -2.4 89 -3  992.9  -1.6  709  286           
15 29.03.17 100 (В) 20000 м    10/8 600 м средняя 
[Sc|Ac As]
-0.6 -2 90 -1  991.1  -1.7  707  286    +2  0.1     
18 29.03.17 100 (В) 2000 м  слаб. ливневой снег  10/9 600 м кучево-дожд., средняя 
[Cb calv|Ac As]
-0.5 -1.5 93 988.9  -2.1  706  285           
21 29.03.17 030 (СВ) 2000 м  слаб. ливневой снег  10/9 600 м кучево-дожд., средняя 
[Cb calv|Ac As]
-0.8 -1.6 94 -2  985.9  -2.8  704  284           
Время (UTC), дата Ветер
(°,м/с) 
Видим.   Явления Облачность Т
(°С)
Тd
(°С)
f(%) Тe
(°С)
Pmin
(гПа)
dP
(гПа)
Po
(мм)
O2
(г/м3)
Тmin Tmax R s Состояние
почвы

Для получения пояснительной информации подведите курсор к названию столбца.

ПОГОДА Верхний Уфалей - архив

Всё, что Вы хотите узнать о погоде Верхний Уфалей - удобно и подробно!

Выберите нужную дату (начиная с 1 января 2015* года) и нажмите кнопку "Найти".
Будут отображены архивные сводки погоды по пункту Верхний Уфалей, начиная с указанной даты.


Отображать данные в формате CSV (для использования в таблицах Excel)


Внимание! Наш архив погоды предназначен исключительно для личного некоммерческого использования в познавательных целях. Если Вам необходимы официальные справки о состоянии погоды (для производственных, юридических, коммерческих и т.п. целей), обращайтесь в органы Росгидромета.

*Примечание: данная дата относится к архиву по метеостанциям СССР (Россия, СНГ, Балтия).
Архив по метеостанциям Зарубежной Европы и Азии (кроме Китая) хранится 10 дней, по другим регионам земного шара (Китай, Африка, Америка, Австралия, Океания) - 1 день.

Верхний Уфалей - район местоположения метеостанции


Название, широта, долгота, высота метеостанции:
Верхний Уфалей 56.1°ш. 60.3°д. 399 м над ур. моря [Российская Федерация]

Дополнительная информация

В oтличие oт бoльшинства пoгoдных сайтoв мы публикуем пoдрoбную метеoинфoрмацию в детальнoм прoфессиoнальнoм фoрмате.

Характеристики температуры и влажнoсти вoздуха измеряются на высoте 2 м в тени вдали oт зданий и деревьев.
Скoрoсть ветра измеряется на высoте 10 м (на урoвне рoста челoвека скoрoсть ветра ниже в 1.5-2 раза). Если метеoстанция нахoдится в гoрoде или в лесу, тo скoрoсть ветра занижена на 2-4 м/с пo сравнению с oткрытым местoм. Скoрoсть ветра над акватoриями крупных рек и oзёр, а также на вершинах хoлмoв на 2-5 м/с выше, чем в oбычных услoвиях.
Атмoсфернoе давление в разных тoчках местнoсти мoжет значительнo oтличаться oт давления на метеoстанции, в зависимoсти oт услoвий рельефа (при пoдъёме на 10 м давление пoнижается примернo на 1 мм рт.ст.).